GW2413 Weather Reports


time (UTC)temp
C
wind
direction
speed
KPH
gust
KPH
rain 1hr
cm
rain 24hr
cm
rain mn
cm
humidity
%
barometer
mb
20260510143825 24 131 1.6 1.6 0.00 0.00 0.00 51 1013.3
20260510143322 23 94 0.0 0.0 0.00 0.00 0.00 54 1013.5
20260510142819 25 153 3.2 3.2 0.00 0.00 0.00 51 1013.3
20260510142315 25 91 0.0 1.6 0.00 0.00 0.00 49 1013.1
20260510141812 24 99 0.0 1.6 0.00 0.00 0.00 52 1012.9
20260510141309 23 114 0.0 0.0 0.00 0.00 0.00 53 1013.1
20260510140807 23 108 0.0 1.6 0.00 0.00 0.00 51 1013.1
20260510140302 23 223 3.2 3.2 0.00 0.00 0.00 50 1013.0
20260510135756 23 108 0.0 0.0 0.00 0.00 0.00 52 1013.2
20260510135252 22 99 1.6 3.2 0.00 0.00 0.00 50 1013.4
20260510134750 23 127 0.0 1.6 0.00 0.00 0.00 54 1013.5
20260510134247 22 206 1.6 3.2 0.00 0.00 0.00 53 1013.3
20260510133742 22 102 0.0 0.0 0.00 0.00 0.00 57 1013.3
20260510133238 21 108 0.0 0.0 0.00 0.00 0.00 60 1013.4
20260510132734 21 70 1.6 1.6 0.00 0.00 0.00 58 1013.3
20260510132232 22 200 1.6 3.2 0.00 0.00 0.00 58 1013.4
20260510131729 21 119 0.0 0.0 0.00 0.00 0.00 59 1013.3
20260510131227 21 99 0.0 0.0 0.00 0.00 0.00 59 1013.1
20260510130723 21 115 0.0 0.0 0.00 0.00 0.00 59 1012.9
20260510130220 21 117 0.0 0.0 0.00 0.00 0.00 65 1013.4
20260510125716 21 90 0.0 0.0 0.00 0.00 0.00 65 1013.5
20260510125212 20 95 0.0 0.0 0.00 0.00 0.00 67 1013.4
20260510124709 20 108 0.0 0.0 0.00 0.00 0.00 69 1013.8
20260510124207 20 129 0.0 0.0 0.00 0.00 0.00 68 1013.5
20260510123702 19 103 0.0 0.0 0.00 0.00 0.00 71 1013.5
20260510123158 19 122 1.6 1.6 0.00 0.00 0.00 73 1013.6
20260510122655 18 88 0.0 0.0 0.00 0.00 0.00 73 1013.6
20260510122151 18 99 0.0 0.0 0.00 0.00 0.00 75 1013.9
20260510121647 17 83 0.0 0.0 0.00 0.00 0.00 77 1013.5
20260510121145 17 77 0.0 0.0 0.00 0.00 0.00 78 1013.4
20260510120642 16 101 0.0 1.6 0.00 0.00 0.00 81 1013.3
20260510120138 16 59 0.0 0.0 0.00 0.00 0.00 85 1013.2
20260510115634 15 61 0.0 1.6 0.00 0.00 0.00 87 1013.3
20260510115133 15 68 0.0 1.6 0.00 0.00 0.00 92 1013.1
20260510114628 15 77 0.0 1.6 0.00 0.00 0.00 95 1013.1
20260510114124 13 117 0.0 0.0 0.00 0.00 0.00 97 1012.9
20260510113619 13 118 0.0 0.0 0.00 0.00 0.00 98 1012.7
20260510113117 13 118 0.0 0.0 0.00 0.00 0.00 98 1012.6
20260510112614 13 124 0.0 0.0 0.00 0.00 0.00 98 1012.6
20260510112110 12 124 0.0 0.0 0.00 0.00 0.00 98 1012.8
20260510111606 12 94 0.0 0.0 0.00 0.00 0.00 98 1012.7
20260510111102 12 94 0.0 0.0 0.00 0.00 0.00 98 1012.4
20260510110558 12 94 0.0 0.0 0.00 0.00 0.00 98 1012.3
20260510110055 11 97 0.0 0.0 0.00 0.00 0.00 98 1012.5
20260510105551 11 98 0.0 0.0 0.00 0.00 0.00 99 1012.0
20260510105045 11 98 0.0 0.0 0.00 0.00 0.00 98 1012.2
20260510104542 10 98 0.0 0.0 0.00 0.00 0.00 98 1011.9
20260510104039 10 98 0.0 0.0 0.00 0.00 0.00 98 1012.2
20260510103536 10 98 0.0 0.0 0.00 0.00 0.00 98 1011.8
20260510103032 10 98 0.0 0.0 0.00 0.00 0.00 98 1012.0
20260510102528 10 98 0.0 0.0 0.00 0.00 0.00 98 1012.0
20260510102024 10 98 0.0 0.0 0.00 0.00 0.00 98 1011.7
20260510101522 10 98 0.0 0.0 0.00 0.00 0.00 98 1011.7
20260510101021 10 98 0.0 0.0 0.00 0.00 0.00 98 1011.7
20260510100516 10 98 0.0 0.0 0.00 0.00 0.00 98 1011.7
20260510100013 10 98 0.0 0.0 0.00 0.00 0.00 98 1011.6
20260510095509 10 98 0.0 0.0 0.00 0.00 0.00 98 1011.5
20260510095008 10 98 0.0 0.0 0.00 0.00 0.00 98 1011.6
20260510094503 10 98 0.0 0.0 0.00 0.00 0.00 98 1011.5
20260510093959 10 98 0.0 0.0 0.00 0.00 0.00 98 1011.6
20260510093455 10 98 0.0 0.0 0.00 0.00 0.00 98 1011.7
20260510092951 10 98 0.0 0.0 0.00 0.00 0.00 98 1011.7
20260510092449 10 98 0.0 0.0 0.00 0.00 0.00 98 1011.4
20260510091948 10 98 0.0 0.0 0.00 0.00 0.00 98 1011.6
20260510091446 10 98 0.0 0.0 0.00 0.00 0.00 97 1011.5
20260510090942 10 98 0.0 0.0 0.00 0.00 0.00 98 1011.6
20260510090439 10 98 0.0 0.0 0.00 0.00 0.00 98 1011.4
20260510085934 10 98 0.0 0.0 0.00 0.00 0.00 98 1011.4
20260510085430 10 98 0.0 0.0 0.00 0.00 0.00 97 1011.5
20260510084925 10 98 0.0 0.0 0.00 0.00 0.00 97 1011.4
20260510084423 10 98 0.0 0.0 0.00 0.00 0.00 97 1011.3
20260510083920 10 98 0.0 0.0 0.00 0.00 0.00 97 1011.1
20260510083416 11 98 0.0 0.0 0.00 0.00 0.00 97 1011.4
20260510082911 11 98 0.0 0.0 0.00 0.00 0.00 97 1011.3
20260510082410 11 98 0.0 0.0 0.00 0.00 0.00 97 1010.9
20260510081908 11 98 0.0 0.0 0.00 0.00 0.00 97 1010.9
20260510081404 10 98 0.0 0.0 0.00 0.00 0.00 97 1010.9
20260510080901 10 98 0.0 0.0 0.00 0.00 0.00 97 1011.0
20260510080400 11 98 0.0 0.0 0.00 0.00 0.00 97 1010.8
20260510075857 11 98 0.0 0.0 0.00 0.00 0.00 97 1010.9
20260510075355 11 98 0.0 0.0 0.00 0.00 0.00 96 1010.6
20260510074851 11 98 0.0 0.0 0.00 0.00 0.00 96 1010.6
20260510074348 11 98 0.0 0.0 0.00 0.00 0.00 96 1010.6
20260510073844 11 98 0.0 0.0 0.00 0.00 0.00 96 1010.6
20260510073340 11 102 0.0 0.0 0.00 0.00 0.00 96 1010.5
20260510072836 11 102 0.0 0.0 0.00 0.00 0.00 96 1010.6
20260510072334 11 102 0.0 0.0 0.00 0.00 0.00 96 1010.5
20260510071830 11 102 0.0 0.0 0.00 0.00 0.00 96 1010.5
20260510071326 11 102 0.0 0.0 0.00 0.00 0.00 96 1010.5
20260510070825 11 102 0.0 0.0 0.00 0.00 0.00 96 1010.4
20260510070321 12 102 0.0 0.0 0.00 0.00 0.00 96 1010.4
20260510065816 12 102 0.0 0.0 0.00 0.00 0.00 95 1010.3
20260510065313 12 102 0.0 0.0 0.00 0.00 0.00 95 1010.3
20260510064810 12 102 0.0 0.0 0.00 0.00 0.00 95 1010.1
20260510064308 12 102 0.0 0.0 0.00 0.00 0.00 95 1010.3
20260510063803 12 102 0.0 0.0 0.00 0.00 0.00 95 1010.2
20260510063300 12 102 0.0 0.0 0.00 0.00 0.00 95 1010.2
20260510062757 12 102 0.0 0.0 0.00 0.00 0.00 94 1010.3
20260510062252 12 102 0.0 0.0 0.00 0.00 0.00 94 1010.0
20260510061748 12 102 0.0 0.0 0.00 0.00 0.00 94 1010.2
20260510061245 12 102 0.0 0.0 0.00 0.00 0.00 94 1010.3
20260510060741 12 102 0.0 0.0 0.00 0.00 0.00 94 1010.0
20260510060238 12 102 0.0 0.0 0.00 0.00 0.00 94 1010.0
20260510055735 12 102 0.0 0.0 0.00 0.00 0.00 93 1010.2
20260510055233 12 102 0.0 0.0 0.00 0.00 0.00 93 1010.2
20260510054732 12 102 0.0 0.0 0.00 0.00 0.00 93 1010.3
20260510054229 12 102 0.0 0.0 0.00 0.00 0.00 92 1010.2
20260510053728 12 102 0.0 0.0 0.00 0.00 0.00 92 1010.0
20260510053225 13 102 0.0 0.0 0.00 0.00 0.00 92 1009.8
20260510052721 13 102 0.0 0.0 0.00 0.00 0.00 92 1010.1
20260510052217 13 102 0.0 0.0 0.00 0.00 0.00 91 1010.3
20260510051713 13 102 0.0 0.0 0.00 0.00 0.00 91 1010.2
20260510051210 13 102 0.0 0.0 0.00 0.00 0.00 91 1010.1
20260510050707 13 102 0.0 0.0 0.00 0.00 0.00 91 1010.2
20260510050204 13 99 0.0 0.0 0.00 0.00 0.00 91 1010.1
20260510045701 13 99 0.0 0.0 0.00 0.00 0.00 90 1010.0
20260510045157 13 99 0.0 0.0 0.00 0.00 0.00 90 1010.1
20260510044653 13 99 0.0 0.0 0.00 0.00 0.00 89 1010.0
20260510044151 13 99 0.0 0.0 0.00 0.00 0.00 89 1010.0
20260510043647 14 99 0.0 0.0 0.00 0.00 0.00 88 1010.3
20260510043143 14 99 0.0 0.0 0.00 0.00 0.00 88 1010.1
20260510042641 14 115 0.0 0.0 0.00 0.00 0.00 88 1010.3
20260510042137 14 130 0.0 0.0 0.00 0.00 0.00 88 1010.2
20260510041634 14 96 0.0 0.0 0.00 0.00 0.00 88 1010.3
20260510041131 14 98 0.0 0.0 0.00 0.00 0.00 88 1009.9
20260510040628 14 98 0.0 0.0 0.00 0.00 0.00 87 1010.2
20260510040125 14 98 0.0 0.0 0.00 0.00 0.00 86 1010.0
20260510035620 15 98 0.0 0.0 0.00 0.00 0.00 86 1010.0
20260510035115 15 98 0.0 0.0 0.00 0.00 0.00 86 1010.0
20260510034613 15 98 0.0 0.0 0.00 0.00 0.00 85 1009.9
20260510034110 15 98 0.0 0.0 0.00 0.00 0.00 85 1009.9
20260510033606 15 98 0.0 0.0 0.00 0.00 0.00 84 1009.8
20260510033104 15 100 0.0 0.0 0.00 0.00 0.00 84 1009.8
20260510032600 15 100 0.0 0.0 0.00 0.00 0.00 83 1009.6
20260510032055 15 100 0.0 0.0 0.00 0.00 0.00 83 1009.9
20260510031550 15 100 0.0 0.0 0.00 0.00 0.00 82 1009.7
20260510031047 16 100 0.0 0.0 0.00 0.00 0.00 81 1009.8
20260510030542 16 100 0.0 0.0 0.00 0.00 0.00 81 1009.8
20260510030040 16 100 0.0 0.0 0.00 0.00 0.00 79 1009.9
20260510025537 16 100 0.0 0.0 0.00 0.00 0.00 79 1009.8
20260510025034 16 101 0.0 0.0 0.00 0.00 0.00 78 1009.8
20260510024531 17 101 0.0 0.0 0.00 0.00 0.00 77 1009.9
20260510024027 17 103 0.0 0.0 0.00 0.00 0.00 76 1009.6
20260510023523 17 96 0.0 0.0 0.00 0.00 0.00 75 1009.5
20260510023021 17 97 0.0 0.0 0.00 0.00 0.00 75 1009.5
20260510022520 17 97 0.0 0.0 0.00 0.00 0.00 74 1009.7
20260510022014 17 97 0.0 0.0 0.00 0.00 0.00 73 1009.8
20260510021511 18 97 0.0 0.0 0.00 0.00 0.00 72 1009.5
20260510021009 18 99 0.0 0.0 0.00 0.00 0.00 71 1009.4
20260510020503 18 99 0.0 0.0 0.00 0.00 0.00 70 1009.4
20260510015959 18 99 0.0 0.0 0.00 0.00 0.00 71 1009.2
20260510015454 18 93 0.0 0.0 0.00 0.00 0.00 71 1009.1
20260510014950 18 96 0.0 0.0 0.00 0.00 0.00 72 1009.3
20260510014448 17 99 0.0 0.0 0.00 0.00 0.00 72 1009.3
20260510013944 17 99 0.0 0.0 0.00 0.00 0.00 72 1009.2
20260510013438 17 74 0.0 0.0 0.00 0.00 0.00 73 1008.9
20260510012935 17 74 0.0 0.0 0.00 0.00 0.00 74 1008.9
20260510012429 17 74 0.0 0.0 0.00 0.00 0.00 73 1008.6
20260510011925 17 74 0.0 0.0 0.00 0.00 0.00 73 1008.9
20260510011420 17 74 0.0 0.0 0.00 0.00 0.00 72 1008.7
20260510010916 17 74 0.0 0.0 0.00 0.00 0.00 71 1008.7
20260510010413 17 74 0.0 0.0 0.00 0.00 0.00 71 1008.6
20260510005910 18 74 0.0 0.0 0.00 0.00 0.00 70 1008.5
20260510005406 18 74 0.0 0.0 0.00 0.00 0.00 69 1008.6
20260510004904 18 74 0.0 0.0 0.00 0.00 0.00 70 1008.7
20260510004401 18 74 0.0 0.0 0.00 0.00 0.00 69 1008.5
20260510003859 18 74 0.0 0.0 0.00 0.00 0.00 69 1008.5
20260510003356 18 74 0.0 0.0 0.00 0.00 0.00 67 1008.4
20260510002854 18 74 0.0 0.0 0.00 0.00 0.00 66 1008.3
20260510002352 19 74 0.0 0.0 0.00 0.00 0.00 65 1008.5
20260510001848 19 74 0.0 0.0 0.00 0.00 0.00 63 1008.2
20260510001346 20 74 0.0 0.0 0.00 0.00 0.00 63 1008.2
20260510000842 20 74 0.0 0.0 0.00 0.00 0.00 62 1008.3
20260510000341 20 74 0.0 0.0 0.00 0.00 0.00 60 1008.1
20260509235836 21 74 0.0 0.0 0.00 0.00 0.00 58 1008.0
20260509235333 21 74 0.0 0.0 0.00 0.00 0.00 57 1008.2
20260509234829 21 120 0.0 0.0 0.00 0.00 0.00 56 1008.2
20260509234326 21 102 0.0 0.0 0.00 0.00 0.00 57 1007.7
20260509233824 22 114 0.0 0.0 0.00 0.00 0.00 55 1008.1
20260509233322 22 118 3.2 3.2 0.00 0.00 0.00 55 1008.2
20260509232817 22 235 4.8 4.8 0.00 0.00 0.00 54 1007.9
20260509232315 22 122 0.0 1.6 0.00 0.00 0.00 54 1008.0
20260509231811 22 151 0.0 0.0 0.00 0.00 0.00 53 1008.0
20260509231308 22 167 3.2 4.8 0.00 0.00 0.00 53 1007.8
20260509230806 22 175 1.6 1.6 0.00 0.00 0.00 53 1007.9
20260509230302 22 237 1.6 3.2 0.00 0.00 0.00 52 1008.0
20260509225757 22 102 0.0 0.0 0.00 0.00 0.00 53 1007.8
20260509225254 23 126 0.0 1.6 0.00 0.00 0.00 52 1007.9
20260509224749 23 213 0.0 1.6 0.00 0.00 0.00 53 1007.9
20260509224247 23 117 0.0 1.6 0.00 0.00 0.00 51 1008.1
20260509223744 22 85 1.6 1.6 0.00 0.00 0.00 52 1008.4
20260509223240 22 118 0.0 0.0 0.00 0.00 0.00 54 1008.2
20260509222737 23 112 1.6 1.6 0.00 0.00 0.00 54 1008.1
20260509222233 22 116 0.0 0.0 0.00 0.00 0.00 54 1008.2
20260509221728 22 126 0.0 1.6 0.00 0.00 0.00 54 1008.1
20260509221225 22 220 4.8 4.8 0.00 0.00 0.00 53 1008.1
20260509220721 22 128 0.0 0.0 0.00 0.00 0.00 53 1008.3
20260509220218 23 213 3.2 3.2 0.00 0.00 0.00 52 1008.2
20260509215713 23 98 3.2 3.2 0.00 0.00 0.00 52 1008.3
20260509215210 23 273 3.2 3.2 0.00 0.00 0.00 51 1008.3
20260509214707 23 205 1.6 1.6 0.00 0.00 0.00 52 1008.1
20260509214204 23 112 0.0 0.0 0.00 0.00 0.00 52 1008.3
20260509213701 23 235 1.6 4.8 0.00 0.00 0.00 52 1008.2
20260509213156 23 115 1.6 3.2 0.00 0.00 0.00 51 1008.1
20260509212654 25 103 1.6 3.2 0.00 0.00 0.00 49 1008.1
20260509212151 25 147 3.2 4.8 0.00 0.00 0.00 48 1008.2
20260509211647 25 217 3.2 4.8 0.00 0.00 0.00 48 1008.2
20260509211144 25 178 0.0 1.6 0.00 0.00 0.00 50 1008.1
20260509210640 25 140 0.0 0.0 0.00 0.00 0.00 49 1008.0
20260509210132 24 247 4.8 4.8 0.00 0.00 0.00 49 1008.2
20260509205627 25 249 3.2 4.8 0.00 0.00 0.00 49 1008.1
20260509205121 24 210 1.6 3.2 0.00 0.00 0.00 51 1008.1
20260509204617 24 202 1.6 3.2 0.00 0.00 0.00 51 1007.9
20260509204109 23 177 3.2 3.2 0.00 0.00 0.00 51 1008.0
20260509203604 23 236 4.8 8.0 0.00 0.00 0.00 51 1007.9
20260509203103 24 86 0.0 1.6 0.00 0.00 0.00 51 1008.0
20260509202557 23 91 4.8 4.8 0.00 0.00 0.00 50 1008.1
20260509202053 25 119 3.2 3.2 0.00 0.00 0.00 51 1007.9
20260509201548 23 145 1.6 3.2 0.00 0.00 0.00 51 1008.1
20260509201046 24 89 1.6 1.6 0.00 0.00 0.00 51 1008.1
20260509200545 23 270 6.4 9.7 0.00 0.00 0.00 51 1008.3
20260509200042 23 103 0.0 1.6 0.00 0.00 0.00 52 1008.4
20260509195537 23 239 4.8 4.8 0.00 0.00 0.00 49 1008.7
20260509195032 23 93 3.2 3.2 0.00 0.00 0.00 52 1008.4
20260509194527 23 177 8.0 12.9 0.00 0.00 0.00 51 1008.6
20260509194025 23 247 6.4 9.7 0.00 0.00 0.00 51 1008.4
20260509193525 23 209 4.8 8.0 0.00 0.00 0.00 53 1008.8
20260509193022 23 107 0.0 0.0 0.00 0.00 0.00 57 1008.9
20260509192518 22 103 0.0 0.0 0.00 0.00 0.00 55 1008.7
20260509192013 22 98 1.6 1.6 0.00 0.00 0.00 55 1008.9
20260509191508 21 112 0.0 1.6 0.00 0.00 0.00 57 1009.0
20260509191004 22 171 3.2 4.8 0.00 0.00 0.00 55 1009.0
20260509190501 21 79 0.0 0.0 0.00 0.00 0.00 58 1009.1
20260509185959 21 125 0.0 1.6 0.00 0.00 0.00 58 1009.1
20260509185456 21 201 4.8 4.8 0.00 0.00 0.00 57 1009.2
20260509184952 21 214 4.8 8.0 0.00 0.00 0.00 57 1009.3
20260509184451 21 115 1.6 1.6 0.00 0.00 0.00 58 1009.3
20260509183947 21 209 6.4 9.7 0.00 0.00 0.00 56 1009.4
20260509183441 21 107 0.0 0.0 0.00 0.00 0.00 59 1009.5
20260509182938 21 149 1.6 1.6 0.00 0.00 0.00 57 1009.4
20260509182434 21 305 6.4 11.3 0.00 0.00 0.00 57 1009.6
20260509181931 21 200 0.0 3.2 0.00 0.00 0.00 57 1009.6
20260509181430 21 128 0.0 1.6 0.00 0.00 0.00 58 1009.6
20260509180927 21 108 1.6 1.6 0.00 0.00 0.00 57 1009.8
20260509180422 21 106 1.6 3.2 0.00 0.00 0.00 56 1009.8
20260509175919 21 202 1.6 1.6 0.00 0.00 0.00 55 1010.0
20260509175415 21 95 3.2 4.8 0.00 0.00 0.00 56 1010.0
20260509174911 21 231 4.8 9.7 0.00 0.00 0.00 55 1009.9
20260509174408 22 176 1.6 3.2 0.00 0.00 0.00 55 1010.2
20260509173903 21 225 1.6 8.0 0.00 0.00 0.00 56 1010.1
20260509173358 21 103 3.2 4.8 0.00 0.00 0.00 57 1009.9
20260509172854 21 216 4.8 12.9 0.00 0.00 0.00 55 1009.9
20260509172351 21 254 8.0 11.3 0.00 0.00 0.00 53 1010.1
20260509171847 22 171 3.2 8.0 0.00 0.00 0.00 53 1010.1
20260509171343 22 111 6.4 11.3 0.00 0.00 0.00 52 1010.1
20260509170840 22 211 4.8 4.8 0.00 0.00 0.00 54 1010.2
20260509170336 21 189 1.6 1.6 0.00 0.00 0.00 54 1010.1
20260509165830 21 103 0.0 0.0 0.00 0.00 0.00 56 1010.0
20260509165325 20 179 3.2 4.8 0.00 0.00 0.00 56 1010.3
20260509164821 20 267 0.0 0.0 0.00 0.00 0.00 59 1010.5
20260509164318 20 134 3.2 3.2 0.00 0.00 0.00 58 1010.4
20260509163814 20 243 3.2 9.7 0.00 0.00 0.00 58 1010.4
20260509163311 20 123 0.0 1.6 0.00 0.00 0.00 58 1010.4
20260509162810 20 196 1.6 3.2 0.00 0.00 0.00 57 1010.4
20260509162306 21 169 4.8 4.8 0.00 0.00 0.00 56 1010.5
20260509161759 20 225 1.6 4.8 0.00 0.00 0.00 57 1010.6
20260509161255 20 260 6.4 8.0 0.00 0.00 0.00 57 1010.5
20260509160751 20 233 8.0 16.1 0.00 0.00 0.00 58 1010.6
20260509160247 21 40 1.6 1.6 0.00 0.00 0.00 56 1010.3
20260509155742 21 66 3.2 4.8 0.00 0.00 0.00 56 1010.5
20260509155239 21 91 1.6 3.2 0.00 0.00 0.00 57 1010.5
20260509154735 21 148 3.2 3.2 0.00 0.00 0.00 57 1010.8
20260509154232 20 175 3.2 8.0 0.00 0.00 0.00 57 1010.7
20260509153730 20 226 9.7 11.3 0.00 0.00 0.00 55 1010.9
20260509153226 20 194 3.2 4.8 0.00 0.00 0.00 60 1010.6
20260509152722 20 123 1.6 3.2 0.00 0.00 0.00 60 1010.9
20260509152219 20 225 8.0 11.3 0.00 0.00 0.00 59 1010.9
20260509151716 20 131 4.8 9.7 0.00 0.00 0.00 58 1010.7
20260509151213 19 152 1.6 1.6 0.00 0.00 0.00 60 1010.7
20260509150710 19 187 3.2 3.2 0.00 0.00 0.00 59 1011.0
20260509150209 19 125 1.6 1.6 0.00 0.00 0.00 62 1010.7
20260509145704 18 130 1.6 1.6 0.00 0.00 0.00 63 1011.0
20260509145200 18 167 1.6 1.6 0.00 0.00 0.00 61 1011.0
20260509144656 18 134 1.6 1.6 0.00 0.00 0.00 61 1011.0